155P/Shoemaker 3

Epoch 2019 Nov. 13.0 TT = JDT 2458800.5  

T 2019 Nov. 15.19725 TT                                 Nakano

q   1.8018477            (2000.0)            P               Q

n   0.05825667     Peri.   14.66662     -0.37084969     -0.92209315

a   6.5903066      Node    97.19790     +0.84044656     -0.38385801

e   0.7265912      Incl.    6.39592     +0.39512035     -0.04896184

P  16.92

From 888 observations 1986-2003, mean residual 0".71.

Residuals in seconds of arc 

1986/                     021222 619  1.5+  0.3+    030212 H43  0.3+  0.4+  

860110 675 (3.3-  1.7+)   021222 619  1.2+  0.1+    030212 H43  0.0   0.3-  

860110 675  0.8-  1.7+    021225 H43  0.7-  0.1+    030212 235  1.0+  1.3+  

860112 688  0.2+  1.1-    021225 H43  0.3-  0.6+    030212 048  0.2-  0.4-  

860112 688  0.7+  1.0-    021225 H43  0.6-  1.6+    030212 048  0.3+  0.2-  

860117 801 (2.6-  2.2+)   021226 H43  1.8-  1.1+    030212 048  0.1-  0.0   

860117 688 (3.7+  0.6-)   021227 213  0.1+  0.7+    030212 048  0.1-  0.3-  

860117 688 (1.1+  2.9-)   021227 213  0.4+  0.4+    030212 048  0.5-  0.2-  

860117 391  0.1-  0.6-    021227 213  0.2+  0.6+    030212 048  0.2+  0.4-  

860117 391  0.6+  1.1-    021227 213  0.0   0.3-    030212 048  0.3-  0.3-  

860117 893 (4.3+  1.1+)Y  021227 213  0.0   0.4+    030212 048  0.8-  0.3-  

860117 391  1.3+  1.0-    021227 213  0.1+  0.5+    030212 048  0.1-  0.1+  

860117 323  1.7+  2.0-    021228 H43  0.4-  0.1+    030212 048  0.4-  0.2-  

860117 893  2.4-  1.8- Y  021228 355  0.2-  0.1+    030213 H41  0.1+  0.1+  

860117 391  2.2-  0.9-    021228 355  0.0   0.2+    030213 H41  0.4-  0.4-  

860118 046  0.8-  0.8-    021228 355  0.7-  0.4+    030213 048  0.3+  0.4-  

860118 046  1.1-  0.2-    021228 349  0.4+  0.5+    030213 048  0.1+  0.3-  

860118 809  1.2-  1.0-    021228 349  0.1-  0.5+    030213 048  0.6-  0.7-  

860118 675  0.5-  0.7-    021228 349  0.0   0.8+    030213 048  0.1+  0.0   

860118 675  0.4-  0.6-    021228 349  0.1+  0.3+    030213 048  0.9-  0.1+  

860118 893  1.4-  0.1-    021228 349  0.1+  0.5+    030213 048  0.4-  0.1-  

860118 893 (3.2-  0.5+)   021228 445  0.2-  0.7-    030213 048  0.1+  0.9-  

860118 893  0.6-  1.5-    021228 445 (3.1+  0.8+)   030213 048  0.5-  0.0   

860119 809  1.0-  1.9-    021228 232 (3.2-  0.8+)   030213 048  0.8-  0.3-  

860119 809  1.3-  1.7-    021228 232  1.4-  0.6-    030213 048  0.7-  0.4-  

860119 372  0.2-  1.2-    021228 232  0.1+  0.1-    030214 750  0.2+  0.3+  

860120 809  0.9-  2.3-    021229 939  1.1-  0.6+    030214 750  0.4+  0.3+  

860120 809  0.7-  1.0-    021229 939  0.1-  0.4+    030218 H43  0.7-  1.0+  

860120 675  0.3-  0.8-    021229 939  1.1+  0.2-    030218 H43  1.0-  1.1-  

860120 675  0.3-  0.6-    021229 A02  0.6+  0.1+    030218 H43  0.8-  0.4+  

860120 657  0.2-  0.2-    021229 A02  0.4-  0.3+    030218 636  0.5-  0.3+  

860120 675  0.2+  0.7-    021229 A02  0.1-  0.1+    030218 636  0.3+  0.6+  

860120 675  0.1+  0.7-    021229 340  1.4-  1.3-    030221 048  0.5-  0.5-  

860120 707  0.2+  0.3+    021229 340  1.5-  1.4-    030221 048  0.1+  1.4-  

860120 675  0.1-  0.8-    021229 340  1.8-  1.3-    030221 048  0.7-  1.3-  

860120 675  0.2-  0.9-    021229 130  0.5+  0.8+    030221 048  0.1-  1.1-  

860121 809  0.9-  2.3-    021229 130  0.9+  0.0     030221 048  0.2+  1.3-  

860121 809  1.0-  1.1-    021229 130  0.2+  0.5+    030221 048  0.1+  1.0-  

860121 323  0.3+  1.4-    021229 J97  0.9-  1.5+    030221 048  0.3-  0.6-  

860121 391  1.7-  1.6-    021229 J97  0.3+  0.9+    030221 048  0.4-  1.4-  

860121 391  1.2-  2.0-    021231 704  1.0-  1.2-    030221 048  0.3+  0.9-  

860121 391  0.5-  1.0-    021231 704  0.7+  0.4+    030221 048  0.3-  1.5-  

860122 809  0.3-  2.1-    021231 704  1.7+  0.7-    030222 A18  0.3+  0.0   

860201 792  1.1-  0.9+    021231 704  1.6+  0.4-    030222 048  0.1+  0.2-  

860201 792  1.3-  0.8-    021231 704 (2.5+  1.9+)   030222 048  0.3-  0.9-  

860201 391  1.6+  1.8-    2003/                     030222 048  0.2-  0.1+  

860201 391  0.3+  1.1-    030101 213  0.7-  0.4+    030222 048  0.7-  0.5-  

860202 675  0.5-  0.3-    030101 213  0.3+  0.1+    030222 048  0.4-  0.1+  

860202 675  0.5-  0.4-    030101 213  0.6+  0.2+    030222 048  0.3-  0.3-  

860202 391  0.7-  2.0-    030101 616  0.4-  0.3+    030222 048  0.3-  0.3-  

860202 063 (2.6-  0.7-)   030101 616  0.1-  0.4+    030222 048  0.6+  0.0   

860203 063  0.5+  0.8-    030101 616  0.3-  0.2+    030222 048  0.1-  0.0   

860204 801  0.4+  0.3+    030101 616  1.1-  0.2-    030222 048  0.5+  0.5+  

860204 391 (2.6+  3.9-)   030101 616  0.6-  0.2+    030222 A18  1.4+  0.7-  

860204 391 (2.7+  0.3+)   030101 616  1.2-  0.6+    030222 A46  0.7+  0.2-  

860204 391  0.5+  1.3-    030101 616  0.5-  0.1+    030222 A46  0.2+  0.1-  

860204 056 (3.0+  3.1-)   030101 616  0.2+  0.2-    030222 A46  0.4+  0.3+  

860204 056 (0.3+  2.6-)   030101 616  0.4-  0.4+    030222 A46  0.6+  0.5-  

860204 978 (4.8-  4.7-)   030101 616  0.2-  0.2-    030222 A46  0.0   0.3-  

860205 675  1.7+  0.8-    030102 349  0.0   0.6+    030222 A46  0.3-  0.4-  

860205 391 (0.6+  2.6-)   030102 349  0.4+  0.4+    030222 A46  0.4-  0.4-  

860205 391  1.1-  1.3-    030102 349  0.4+  0.1+    030222 A46  0.5-  0.3-  

860205 056  0.3+  0.1-    030102 349  0.0   0.0     030222 A46  0.2+  0.2+  

860207 675 (2.9-  0.4-)   030102 349  0.0   0.0     030222 A46  0.2-  0.2-  

860207 391  1.4-  1.8+    030103 213  0.4+  0.0     030222 A18  0.3+  0.7+  

860207 391 (0.6+  3.7+)   030103 213  0.2+  0.1+    030223 699  0.8+  0.5-  

860209 801  1.8+  0.2+    030103 213  0.4+  0.3+    030223 699  0.8+  1.0-  

860209 391 (0.6-  2.5-)   030104 232  0.7-  1.1+    030223 699  0.3+  1.8-  

860210 391  1.1-  0.3-    030104 232  0.0   0.7+    030223 699 (0.2+  2.9-) 

860211 491  0.7+  1.1-    030104 232  0.4+  0.5+    030223 H43  0.3+  0.5-  

860211 691  0.7+  0.4-    030104 204  0.6+  0.1+    030223 H43  0.3-  1.1+  

860211 691  0.4+  0.1-    030104 A02  0.1+  0.3+    030223 048  0.1-  0.4-  

860211 491  0.1+  0.2+    030104 A02  0.2+  0.4+    030223 048  0.2+  0.7-  

860212 391  0.1-  2.4-    030104 204  0.7+  0.2+    030223 048  0.0   0.6-  

860306 707  0.3+  0.1+    030104 204  0.6+  0.2+    030223 048  0.1+  0.4-  

860312 801 (4.9-  2.9-)   030104 H43  0.0   0.3-    030223 048  0.2+  0.5-  

860316 691 (3.5+  0.9-)   030104 340  0.1+  0.2+    030223 048  0.0   0.5-  

860404 801  0.1+  0.7+    030104 340  0.1+  0.3+    030223 048  0.0   0.1-  

860414 801 (3.8+  1.1-)   030104 340  0.1+  0.0     030223 048  0.1-  0.4-  

860415 691  0.6+  1.0+    030104 349  0.1+  0.3-    030223 048  0.2+  0.5-  

860415 691  0.6+  0.9+    030104 349  0.4+  0.4-    030223 048  0.1+  0.4-  

860415 691  0.5+  1.1+    030104 349  0.1+  0.2+    030223 A46  0.1-  0.3-  

860513 691  1.8+  0.2-    030104 349  0.6+  0.2+    030223 A46  0.8-  0.0   

860513 691 (4.7+  0.8-)   030104 349  0.2-  0.3+    030223 A46  0.0   0.2-  

860513 691  2.3+  0.3-    030105 834  1.5+  0.8+    030223 A46  0.0   0.1-  

860514 691  0.4-  0.8-    030105 834  0.3-  1.4+    030223 A46  0.5+  0.2-  

860514 691  1.0+  0.4-    030105 H43  0.4+  0.1-    030223 A46  0.8-  0.5-  

860514 691 (1.2+  2.6-)   030105 H43  0.0   0.6+    030223 A46  0.1-  0.1+  

2002/                     030105 704 (3.0-  2.5-)   030223 A46  0.4-  0.4+  

020904 372  0.2-  0.1+    030105 704  0.3-  0.5+    030223 A46  0.7-  0.0   

020907 372  0.3-  0.7+    030105 704 (0.5-  2.2-)   030223 A46  0.7-  0.0   

020909 867  0.0   0.2-    030105 704  0.7+  0.5+    030223 A46  0.3-  0.7-  

020909 867  0.3-  0.4-    030105 704 (2.9+  3.0+)   030224 H43  1.3+  1.6-  

020909 867  0.1-  0.7-    030106 213  0.8-  1.2+    030224 H43 (1.3+  2.0-) 

020909 867  0.0   0.8-    030106 213 (2.5+  0.4+)   030224 H43 (1.0-  2.1-) 

020912 372  0.6-  0.8-    030106 213  0.0   0.6-    030224 322  0.2+  0.4-  

020912 360  0.4+  0.5-    030107 212  0.0   0.3+    030224 322  0.1+  0.5+  

020912 360  0.4+  0.5-    030107 212  0.6+  0.3+    030224 322  0.5-  0.2-  

020912 360  0.2+  0.0     030107 212  0.7+  0.4+    030224 204  0.4+  0.0   

020915 204  0.0   0.0     030108 750  0.0   0.6+    030225 204  0.0   0.2-  

020915 204  0.5-  0.4-    030108 750  0.2-  0.4+    030225 204  0.4+  0.3+  

020915 204  0.1-  1.3-    030109 750  0.2-  1.0+    030225 E04  0.4-  0.3-  

020915 204  0.1-  1.1-    030109 750  0.2+  1.4+    030225 E04  0.0   0.2-  

021003 704  0.2-  1.2-    030109 704  0.8-  1.7-    030225 349  0.7-  0.8+  

021003 704  0.1+  0.1-    030109 704  0.2-  1.0+    030225 349  0.8-  0.5+  

021003 704  1.9-  0.5-    030109 704  1.8+  0.7+    030225 349  0.6-  0.3-  

021003 704  1.5-  0.8-    030109 704 (0.2+  2.2+)   030225 349  1.0-  0.4-  

021010 349  0.5-  0.8+    030109 H43  0.6-  0.2+    030225 118  0.5+  0.1+  

021010 349  0.2+  1.1-    030110 458  0.7+  1.0+    030225 118  0.5+  0.2+  

021010 349  0.5+  0.8-    030110 458  0.1+  0.3+    030225 118  0.3+  0.4+  

021013 232  0.6+  1.5-    030111 235  0.9-  1.7+    030225 048  0.5+  0.0   

021013 232  0.4-  1.5-    030111 H41  0.2-  0.1+    030225 048  0.1-  0.6-  

021013 232  0.8-  0.4-    030111 H41  0.4-  0.2+    030225 048  0.1-  0.0   

021013 349  0.1+  0.4-    030111 048  0.4+  0.1+    030225 048  0.1+  0.7-  

021013 349  0.1-  0.7-    030111 048  0.1+  0.3-    030225 048  0.1+  0.8-  

021013 349  0.2-  0.3+    030111 048  0.9+  0.2-    030225 048  0.5+  0.8-  

021013 349  0.5-  0.8+    030111 213  0.7+  0.7-    030225 048  0.6-  0.7-  

021013 349  0.2-  0.4+    030111 048  0.0   0.1+    030225 048  0.6-  0.6-  

021014 360  0.7+  0.4-    030111 213  0.3-  0.6+    030225 048  0.8+  0.2-  

021014 360  0.6+  0.4-    030111 213  0.6-  0.5+    030225 048  0.7+  0.6-  

021019 232  0.8+  0.9+    030111 048  0.2-  0.1-    030225 A46  0.1-  0.7-  

